User: anonymous
Location: Leeds
(37.2390°N, 113.3580°W)
Time: 06:39:10
(UTC-06:00)
Language:

SL-08 RB Rocket - Orbit

View from above orbital plane
View from above orbital plane
View from above satellite
View from above satellite

Ground track
Ground track

The orbit data is extracted from the following two-line orbital elements,

1 26387U 00033D   14231.16143234  .00000273  00000-0  56832-4 0  5814
2 26387 098.1013 298.1686 0026836 017.0213 011.1109 14.67339633756320
Epoch (UTC): 19 August 2014 03:52:27
Eccentricity: 0.0026836
inclination: 98.1013°
perigee height: 650 km
apogee height: 688 km
right ascension of ascending node: 298.1686°
argument of perigee: 17.0213°
revolutions per day: 14.67339633
mean anomaly at epoch: 11.1109°
orbit number at epoch: 75632

The dashed part of the orbit path shows where the satellite is in the earth's shadow,  

DLR